SCP
1 2 2 2 2 1 2 1 1 1 1 1 1 1 1 0 0 0 0 0 0 0 0 0 0 0 0 0 0 -0 0 0 0 0 0 0 0 0
1 1 1 1 1 1 1 1 1 1 0 1 0 0 0 0 0 0 -0 0 0 -0 -0 0 0 0 -0 0 0 0 0 0 0 0 0 0 0 0
0 0 0 0 0 1 1 1 1 1 0 0 0 0 0 0 0 0 0 0 1 0 0 0 0 0 0 0 0 0 0 0 0 0 0 0 0 0
0 0 0 0 0 0 0 0 0 0 0 0 0 0 0 0 1 1 1 1 1 1 0 0 0 0 0 0 0 0 0 0 0 0 0 0 0 0
0 0 0 0 0 0 0 0 0 0 0 0 0 0 0 0 0 1 1 1 1 1 0 0 0 0 0 0 0 0 0 0 0 0 0 0 0 0
0 0 0 0 0 0 0 0 0 0 0 0 0 0 0 0 0 0 0 0 1 1 0 0 1 0 0 0 0 0 0 0 0 0 0 0 0 0
0 0 0 0 0 0 0 0 0 0 0 0 0 0 0 0 0 0 0 0 0 0 0 0 0 0 0 0 0 0 0 0 0 0 0 0 0 0
0 0 0 0 0 0 0 0 0 0 0 0 0 0 0 0 0 0 0 0 0 0 0 0 0 0 0 0 0 0 0 0 0 0 0 0 0 0
0 0 0 0 0 0 0 0 0 0 0 0 0 0 0 0 0 0 0 0 0 0 0 0 0 0 0 0 0 0 0 0 0 0 0 0 0 0
0 0 0 0 0 0 0 0 0 0 0 0 0 0 0 0 0 0 0 0 0 0 0 0 0 0 0 0 0 0 0 0 0 0 0 0 0 0
0 0 0 0 0 0 0 0 0 0 -0 -0 -0 0 0 0 0 0 0 0 0 0 0 0 0 0 0 0 0 0 0 0 0 0 0 0 0 -0
0 0 0 0 0 0 0 0 0 0 0 0 0 0 0 0 0 0 0 0 0 0 0 0 0 0 0 0 0 0 0 0 0 0 0 0 0 0
0 0 0 0 0 0 0 0 0 0 0 0 0 0 0 0 0 0 0 0 0 0 0 0 0 0 0 0 0 0 0 0 0 0 0 0 0 0
0 0 0 0 0 0 0 0 0 0 0 0 0 0 0 0 0 0 0 0 0 0 0 0 0 0 0 0 0 0 0 0 0 0 0 0 0 0
0 0 0 0 0 0 0 0 0 0 0 0 0 0 0 0 0 0 0 0 0 0 0 0 0 0 0 0 0 0 0 0 0 -0 0 0 -0 0
0 0 0 0 0 0 0 0 0 0 0 0 0 0 0 0 0 0 0 0 0 0 0 0 0 0 0 0 0 0 0 0 0 0 -0 0 -0 -0
0 0 0 0 0 0 0 0 -0 0 0 0 0 -0 0 0 0 0 0 0 0 0 0 0 0 0 0 0 0 0 0 0 0 0 0 -0 -0 -0
0 0 0 0 0 0 0 0 0 0 0 0 0 0 0 0 0 0 0 0 0 0 0 0 0 0 0 0 0 0 0 0 0 0 -0 -0 0 0
0 0 0 0 0 0 0 0 0 0 0 0 0 0 0 0 0 0 0 0 0 0 0 0 0 0 0 0 0 0 0 -0 -0 0 0 0 0 0
0 0 0 0 0 0 0 0 0 0 0 0 0 0 0 0 0 0 0 0 0 0 0 0 0 0 0 0 0 0 0 0 -0 -0 0 0 0 0
0 0 0 0 0 0 0 0 0 0 0 0 0 0 0 0 0 0 0 0 0 0 0 0 0 0 0 0 0 0 0 -0 -0 -0 0 0 -0 -0
0 0 0 0 0 0 0 0 0 0 0 0 0 0 0 0 0 0 0 0 0 0 0 0 0 0 0 0 0 0 -0 -0 -0 -0 -0 -0 0 0
0 0 0 0 0 0 0 0 0 0 0 0 0 0 0 0 0 0 0 0 0 0 0 0 0 0 0 0 0 0 0 0 0 0 -0 0 0 0
Wind_Speed_500mb
35 39 37 39 41 35 34 35 34 32 41 42 37 32 42 44 28 26 29 29 33 24 16 15 18 25 28 32 31 33 33 29 31 32 33 37 36 36
23 25 28 32 32 33 34 35 31 34 38 46 47 44 30 28 38 21 21 29 35 34 38 44 50 44 44 41 39 41 41 41 39 37 37 38 38 37
18 21 22 23 25 27 28 27 29 31 38 47 46 49 55 59 59 59 42 40 44 53 46 50 53 74 64 52 54 52 53 52 50 47 49 49 48 46
22 23 31 31 31 32 23 28 25 23 32 44 49 51 55 46 39 38 42 48 59 62 63 57 55 59 72 79 72 69 66 65 66 65 65 64 61 60
25 28 34 35 33 33 38 39 39 40 39 40 43 41 43 45 49 52 52 48 47 48 46 50 63 72 75 72 75 77 81 81 78 75 79 79 75 72
31 29 31 32 35 35 41 50 50 46 44 44 45 43 42 42 44 42 38 30 36 42 47 48 43 44 51 56 63 74 74 85 85 86 84 78 81 86
32 19 24 31 38 40 38 38 42 43 41 36 37 37 36 42 44 49 55 56 58 44 37 34 28 29 38 49 58 64 70 73 76 74 74 77 78 82
14 21 19 26 23 25 30 36 37 35 38 38 40 43 47 47 53 60 64 68 76 75 74 74 63 65 58 48 34 33 28 48 65 72 77 78 75 74
16 22 23 37 38 33 33 37 33 24 30 36 41 45 52 51 50 53 57 62 69 74 74 86 80 88 87 83 74 60 48 47 56 63 67 66 72 78
22 26 22 23 29 36 47 44 31 28 24 32 36 43 46 48 49 51 54 58 63 63 52 62 61 66 60 64 78 89 77 63 58 66 68 65 69 75
24 19 19 25 34 43 41 33 23 17 20 28 29 31 34 39 44 51 55 60 71 73 64 60 58 57 59 57 46 42 47 64 67 69 77 89 89 87
18 22 21 25 36 39 32 33 30 29 30 29 30 30 35 38 40 44 47 54 60 66 39 31 43 50 55 48 44 39 40 44 51 55 59 61 66 77
12 12 24 30 30 25 29 27 30 35 36 38 45 40 40 40 42 52 54 54 59 64 72 64 65 56 53 58 57 52 48 49 55 48 44 42 44 54
16 19 21 19 22 26 25 24 29 37 40 44 48 50 54 55 64 64 64 64 53 59 65 55 61 76 74 70 62 59 48 35 41 43 45 51 55 48
20 14 19 17 20 26 26 31 35 42 42 42 48 53 51 53 52 65 71 68 55 47 49 43 49 55 56 79 71 68 70 65 53 60 53 46 50 51
16 18 20 20 24 27 29 31 40 40 44 49 53 54 58 58 63 61 73 65 54 44 38 40 33 35 46 51 70 79 72 67 59 56 50 41 43 39
21 18 16 24 26 31 39 44 46 48 53 54 59 64 64 63 62 61 66 64 53 53 48 39 37 26 29 34 41 45 49 53 50 50 44 58 54 42
14 21 29 34 38 40 44 51 51 54 59 60 63 60 59 59 59 60 63 59 61 54 43 33 35 24 22 25 28 35 37 41 37 36 38 44 39 31
28 32 34 35 36 40 45 49 52 55 60 67 65 57 54 54 57 62 61 64 57 64 44 27 25 28 24 30 28 31 37 29 31 34 28 32 31 24
28 33 39 44 47 49 57 64 64 63 62 71 57 52 55 61 64 63 60 63 67 74 61 25 19 25 29 39 25 30 32 25 20 17 20 22 23 23
40 40 39 43 46 49 52 55 55 59 62 58 55 56 63 68 70 68 65 65 63 60 57 59 11 16 23 28 24 28 24 16 16 13 14 19 21 28
39 37 38 41 41 44 46 46 53 63 59 58 60 65 69 74 80 81 70 63 57 59 55 52 30 30 15 16 18 17 22 16 17 17 18 15 18 14
34 34 36 40 40 44 54 56 63 63 62 62 66 73 73 79 87 85 72 62 60 54 54 51 33 26 22 23 22 7 10 17 23 21 21 16 19 26
Wind_Direction_500mb
288 286 290 293 291 294 291 291 299 297 296 287 288 300 282 284 289 275 257 251 214 201 229 242 249 269 262 253 254 257 261 264 268 269 269 269 271 273
305 305 306 307 306 294 300 302 299 295 297 295 293 291 270 297 267 242 223 239 251 239 235 260 234 264 272 274 267 260 255 258 262 265 267 266 264 264
328 318 313 315 317 318 332 333 328 320 308 301 299 296 287 293 291 287 280 272 268 260 258 255 245 233 248 264 257 256 257 259 264 265 266 268 270 269
298 310 299 295 292 301 298 286 293 302 309 311 305 307 309 318 310 302 296 288 279 268 262 257 248 251 250 244 259 260 259 261 264 267 267 265 265 267
294 292 302 302 310 299 293 293 298 292 286 291 297 302 306 308 311 307 299 296 287 283 283 278 269 262 252 255 258 253 257 266 264 263 262 260 261 263
304 303 304 311 295 294 296 298 299 300 297 292 290 296 299 303 302 299 298 302 310 292 285 281 286 281 270 264 267 262 258 258 259 258 266 263 263 262
307 328 305 292 300 300 298 306 311 315 317 314 310 306 312 301 309 297 293 291 281 280 276 267 264 263 274 272 270 262 265 270 268 267 264 262 261 259
329 285 276 298 300 307 315 315 317 326 318 319 315 311 309 303 300 298 297 297 301 274 284 276 275 271 257 253 267 265 274 263 264 262 260 258 257 260
299 297 297 295 304 308 313 323 322 327 315 315 312 311 311 316 314 308 304 301 292 287 287 286 279 275 269 265 259 250 262 272 272 266 263 258 253 255
320 312 333 327 329 329 329 330 325 310 305 303 299 298 301 303 302 302 303 302 304 307 311 293 303 293 290 277 268 263 260 265 269 268 267 267 266 265
353 342 310 318 321 325 333 337 349 344 322 309 312 316 317 306 298 299 298 299 297 297 299 295 304 299 292 287 281 275 268 263 271 271 271 266 264 267
359 345 334 321 319 332 336 335 339 340 346 352 344 342 348 343 346 346 328 308 301 298 303 281 294 304 297 295 289 285 273 270 267 262 266 264 263 262
360 339 334 314 325 332 336 345 344 337 335 339 335 338 333 337 340 343 330 324 305 290 287 287 284 281 278 281 287 286 285 278 273 278 271 272 265 271
350 337 317 342 350 353 347 348 342 338 337 333 338 338 331 328 324 326 332 327 308 287 287 289 284 275 270 272 279 277 287 263 285 272 278 281 277 270
352 352 348 357 356 355 350 340 333 337 335 333 320 317 319 316 315 317 332 334 321 309 303 297 281 282 281 266 268 269 277 278 278 276 277 280 276 273
33 18 11 7 357 347 337 329 332 335 333 328 330 328 326 327 328 330 336 337 332 333 334 328 306 287 282 274 267 272 277 272 278 283 262 279 276 276
33 13 342 351 350 353 344 350 348 349 347 342 339 336 333 329 330 337 342 341 335 335 335 347 335 307 286 279 277 274 277 278 277 273 271 274 275 272
19 20 16 14 11 5 357 351 356 356 350 348 345 340 339 337 341 345 347 347 344 338 331 337 338 316 301 294 280 285 286 280 276 269 269 276 280 276
48 32 22 13 7 4 357 360 6 356 358 355 351 350 351 353 353 351 351 353 351 355 346 340 317 304 284 289 312 321 296 295 275 264 249 255 280 279
48 35 21 17 14 5 1 7 2 352 350 352 358 6 8 5 1 360 359 358 358 355 358 350 331 318 281 289 288 320 316 295 287 252 257 273 279 254
42 33 20 15 11 5 1 359 355 351 345 2 11 15 17 12 9 6 4 4 5 6 3 3 314 299 303 298 281 288 303 319 304 274 262 260 266 277
39 31 20 17 11 6 354 359 356 354 7 15 18 21 19 17 13 10 5 2 6 5 3 8 14 5 15 321 347 358 331 301 323 308 294 271 279 291
31 31 21 9 9 359 6 10 7 13 14 19 21 20 17 15 13 9 7 8 11 13 15 15 14 3 1 337 326 343 342 323 309 308 307 275 267 255
Wind_Speed_850mb
35 39 37 39 41 35 34 35 34 32 41 42 37 32 42 44 28 26 29 29 33 24 16 15 18 25 28 32 31 33 33 29 31 32 33 37 36 36
23 25 28 32 32 33 34 35 31 34 38 46 47 44 30 28 38 21 21 29 35 34 38 44 50 44 44 41 39 41 41 41 39 37 37 38 38 37
18 21 22 23 25 27 28 27 29 31 38 47 46 49 55 59 59 59 42 40 44 53 46 50 53 74 64 52 54 52 53 52 50 47 49 49 48 46
22 23 31 31 31 32 23 28 25 23 32 44 49 51 55 46 39 38 42 48 59 62 63 57 55 59 72 79 72 69 66 65 66 65 65 64 61 60
25 28 34 35 33 33 38 39 39 40 39 40 43 41 43 45 49 52 52 48 47 48 46 50 63 72 75 72 75 77 81 81 78 75 79 79 75 72
31 29 31 32 35 35 41 50 50 46 44 44 45 43 42 42 44 42 38 30 36 42 47 48 43 44 51 56 63 74 74 85 85 86 84 78 81 86
32 19 24 31 38 40 38 38 42 43 41 36 37 37 36 42 44 49 55 56 58 44 37 34 28 29 38 49 58 64 70 73 76 74 74 77 78 82
14 21 19 26 23 25 30 36 37 35 38 38 40 43 47 47 53 60 64 68 76 75 74 74 63 65 58 48 34 33 28 48 65 72 77 78 75 74
16 22 23 37 38 33 33 37 33 24 30 36 41 45 52 51 50 53 57 62 69 74 74 86 80 88 87 83 74 60 48 47 56 63 67 66 72 78
22 26 22 23 29 36 47 44 31 28 24 32 36 43 46 48 49 51 54 58 63 63 52 62 61 66 60 64 78 89 77 63 58 66 68 65 69 75
24 19 19 25 34 43 41 33 23 17 20 28 29 31 34 39 44 51 55 60 71 73 64 60 58 57 59 57 46 42 47 64 67 69 77 89 89 87
18 22 21 25 36 39 32 33 30 29 30 29 30 30 35 38 40 44 47 54 60 66 39 31 43 50 55 48 44 39 40 44 51 55 59 61 66 77
12 12 24 30 30 25 29 27 30 35 36 38 45 40 40 40 42 52 54 54 59 64 72 64 65 56 53 58 57 52 48 49 55 48 44 42 44 54
16 19 21 19 22 26 25 24 29 37 40 44 48 50 54 55 64 64 64 64 53 59 65 55 61 76 74 70 62 59 48 35 41 43 45 51 55 48
20 14 19 17 20 26 26 31 35 42 42 42 48 53 51 53 52 65 71 68 55 47 49 43 49 55 56 79 71 68 70 65 53 60 53 46 50 51
16 18 20 20 24 27 29 31 40 40 44 49 53 54 58 58 63 61 73 65 54 44 38 40 33 35 46 51 70 79 72 67 59 56 50 41 43 39
21 18 16 24 26 31 39 44 46 48 53 54 59 64 64 63 62 61 66 64 53 53 48 39 37 26 29 34 41 45 49 53 50 50 44 58 54 42
14 21 29 34 38 40 44 51 51 54 59 60 63 60 59 59 59 60 63 59 61 54 43 33 35 24 22 25 28 35 37 41 37 36 38 44 39 31
28 32 34 35 36 40 45 49 52 55 60 67 65 57 54 54 57 62 61 64 57 64 44 27 25 28 24 30 28 31 37 29 31 34 28 32 31 24
28 33 39 44 47 49 57 64 64 63 62 71 57 52 55 61 64 63 60 63 67 74 61 25 19 25 29 39 25 30 32 25 20 17 20 22 23 23
40 40 39 43 46 49 52 55 55 59 62 58 55 56 63 68 70 68 65 65 63 60 57 59 11 16 23 28 24 28 24 16 16 13 14 19 21 28
39 37 38 41 41 44 46 46 53 63 59 58 60 65 69 74 80 81 70 63 57 59 55 52 30 30 15 16 18 17 22 16 17 17 18 15 18 14
34 34 36 40 40 44 54 56 63 63 62 62 66 73 73 79 87 85 72 62 60 54 54 51 33 26 22 23 22 7 10 17 23 21 21 16 19 26
Wind_Direction_850mb
288 286 290 293 291 294 291 291 299 297 296 287 288 300 282 284 289 275 257 251 214 201 229 242 249 269 262 253 254 257 261 264 268 269 269 269 271 273
305 305 306 307 306 294 300 302 299 295 297 295 293 291 270 297 267 242 223 239 251 239 235 260 234 264 272 274 267 260 255 258 262 265 267 266 264 264
328 318 313 315 317 318 332 333 328 320 308 301 299 296 287 293 291 287 280 272 268 260 258 255 245 233 248 264 257 256 257 259 264 265 266 268 270 269
298 310 299 295 292 301 298 286 293 302 309 311 305 307 309 318 310 302 296 288 279 268 262 257 248 251 250 244 259 260 259 261 264 267 267 265 265 267
294 292 302 302 310 299 293 293 298 292 286 291 297 302 306 308 311 307 299 296 287 283 283 278 269 262 252 255 258 253 257 266 264 263 262 260 261 263
304 303 304 311 295 294 296 298 299 300 297 292 290 296 299 303 302 299 298 302 310 292 285 281 286 281 270 264 267 262 258 258 259 258 266 263 263 262
307 328 305 292 300 300 298 306 311 315 317 314 310 306 312 301 309 297 293 291 281 280 276 267 264 263 274 272 270 262 265 270 268 267 264 262 261 259
329 285 276 298 300 307 315 315 317 326 318 319 315 311 309 303 300 298 297 297 301 274 284 276 275 271 257 253 267 265 274 263 264 262 260 258 257 260
299 297 297 295 304 308 313 323 322 327 315 315 312 311 311 316 314 308 304 301 292 287 287 286 279 275 269 265 259 250 262 272 272 266 263 258 253 255
320 312 333 327 329 329 329 330 325 310 305 303 299 298 301 303 302 302 303 302 304 307 311 293 303 293 290 277 268 263 260 265 269 268 267 267 266 265
353 342 310 318 321 325 333 337 349 344 322 309 312 316 317 306 298 299 298 299 297 297 299 295 304 299 292 287 281 275 268 263 271 271 271 266 264 267
359 345 334 321 319 332 336 335 339 340 346 352 344 342 348 343 346 346 328 308 301 298 303 281 294 304 297 295 289 285 273 270 267 262 266 264 263 262
360 339 334 314 325 332 336 345 344 337 335 339 335 338 333 337 340 343 330 324 305 290 287 287 284 281 278 281 287 286 285 278 273 278 271 272 265 271
350 337 317 342 350 353 347 348 342 338 337 333 338 338 331 328 324 326 332 327 308 287 287 289 284 275 270 272 279 277 287 263 285 272 278 281 277 270
352 352 348 357 356 355 350 340 333 337 335 333 320 317 319 316 315 317 332 334 321 309 303 297 281 282 281 266 268 269 277 278 278 276 277 280 276 273
33 18 11 7 357 347 337 329 332 335 333 328 330 328 326 327 328 330 336 337 332 333 334 328 306 287 282 274 267 272 277 272 278 283 262 279 276 276
33 13 342 351 350 353 344 350 348 349 347 342 339 336 333 329 330 337 342 341 335 335 335 347 335 307 286 279 277 274 277 278 277 273 271 274 275 272
19 20 16 14 11 5 357 351 356 356 350 348 345 340 339 337 341 345 347 347 344 338 331 337 338 316 301 294 280 285 286 280 276 269 269 276 280 276
48 32 22 13 7 4 357 360 6 356 358 355 351 350 351 353 353 351 351 353 351 355 346 340 317 304 284 289 312 321 296 295 275 264 249 255 280 279
48 35 21 17 14 5 1 7 2 352 350 352 358 6 8 5 1 360 359 358 358 355 358 350 331 318 281 289 288 320 316 295 287 252 257 273 279 254
42 33 20 15 11 5 1 359 355 351 345 2 11 15 17 12 9 6 4 4 5 6 3 3 314 299 303 298 281 288 303 319 304 274 262 260 266 277
39 31 20 17 11 6 354 359 356 354 7 15 18 21 19 17 13 10 5 2 6 5 3 8 14 5 15 321 347 358 331 301 323 308 294 271 279 291
31 31 21 9 9 359 6 10 7 13 14 19 21 20 17 15 13 9 7 8 11 13 15 15 14 3 1 337 326 343 342 323 309 308 307 275 267 255